Regional Weather Roundup
Issued by NWS Wakefield, VA

Home | Current Version | Previous Version | Graphics & Text | Print | Product List | Glossary On
Versions: 1 2 3 4 5 6 7 8 9 10 11 12 13 14 15 16 17 18 19 20 21 22 23 24 25 26 27 28 29 30 31 32 33 34 35 36 37 38 39 40 41 42 43 44 45 46 47
978
ASUS41 KAKQ 081015
RWRAKQ

REGIONAL WEATHER ROUNDUP
NATIONAL WEATHER SERVICE WAKEFIELD VA
500 AM EST MON FEB 08 2016

Note: "fair" indicates few or no clouds below 12,000 feet with no
significant weather and/or obstructions to visibility. * = Denotes
station may not report precipitation (e.g., rain,snow,etc.),
thunder or fog.

VAZ042-051-052>054-056-081100-
NORTHERN VIRGINIA

CITY           SKY/WX    TMP DP  RH WIND       PRES   REMARKS
WASH NATIONAL  MOCLDY    36  22  56 NW13      29.78R
DULLES         FAIR      28  20  71 CALM      29.78S
FORT BELVOIR   FAIR      35  20  54 NW7       29.78R
QUANTICO       FAIR      37  21  52 N12G25    29.80R
FREDERICKSBRG* FAIR      34  23  64 NW6       29.77F
STAFFORD*      FAIR      31  22  67 NW8       29.81F
WARRENTON      FAIR      26  23  87 CALM      29.77F
CULPEPER*      FAIR      26  22  86 CALM      29.79S
MANASSAS*      FAIR      27  23  86 CALM      29.79S
LEESBURG*      FAIR      32  27  80 N6        29.79F
WINCHESTER     FAIR      28  23  80 CALM      29.79S
FRONT ROYAL*   FAIR      27  23  86 CALM      29.78S
LURAY*         FAIR      23  23 100 CALM      29.79R
$$

VAZ048-049-060>072-079>083-081100-
CENTRAL AND SOUTH CENTRAL VIRGINIA

CITY           SKY/WX    TMP DP  RH WIND       PRES   REMARKS
RICHMOND       FAIR      33  22  63 NW9       29.76R
CHESTERFIELD*  FAIR      32  12  43 N8        29.78R
PETERSBURG*    FAIR      34  20  56 NW5       29.77F
HANOVER        FAIR      34  21  59 VRB6      29.78S
TAPPAHANNOCK*  FAIR      37  23  57 NW6       29.76R
QUINTON*       FAIR      35  22  60 NW5       29.75R
CHARLOTTSVILLE FAIR      27  22  81 W3        29.78S
GORDONSVILLE*  FAIR      26  23  86 CALM      29.78R
ORANGE*        FAIR      28  23  80 CALM      29.80R
LOUISA*        FAIR      30  21  69 CALM      29.76S
BUMPASS*       FAIR      35  23  61 N3        29.76F
FARMVILLE*     FAIR      29  23  78 CALM      29.79R
CREWE*         FAIR      31  24  73 W5        29.79R
FORT PICKETT*  FAIR      31  22  70 NW5       29.78R
CHASE CITY*    FAIR      29  24  82 CALM      29.79S
CLARKSVILLE*   FAIR      30  25  80 CALM      29.80R
SOUTH HILL*    FAIR      32  23  69 NW3       29.84R
LAWRENCEVILLE* FAIR      32  23  69 NW3       29.78R
EMPORIA*       FAIR      32  23  69 W6        29.79S
$$

VAZ088>098-081100-
SOUTHEAST VIRGINIA

CITY           SKY/WX    TMP DP  RH WIND       PRES   REMARKS
NORFOLK        FAIR      41  28  60 N16G24    29.70R
VIRGINIA BEACH MOCLDY    43  31  62 N17G29    29.69R
NORFOLK NAVAL  MOCLDY    40  27  59 N14       29.73R
WEST POINT*    FAIR      36  22  58 NW5       29.77R
SALUDA*        FAIR      37  27  65 N8        29.73
NEWPORT NEWS   FAIR      38  24  57 N9        29.73R
LANGLEY AFB    FAIR      39  24  55 N10       29.71R
FORT EUSTIS    FAIR      39  21  47 NW8       29.73R
WILLIAMSBURG*  FAIR      39  25  56 NW8       29.76R
HR EXEC AP*    FAIR      39  25  56 NW5       29.74R
FRANKLIN*      FAIR      36  22  56 NW7       29.76R
US460-WAKEFLD  FAIR      37  21  52 N5        29.76R
$$

VAZ020-022-025-037-045-081100-
WEST CENTRAL AND SOUTHWEST VIRGINIA

CITY           SKY/WX    TMP DP  RH WIND       PRES   REMARKS
STAUNTON*      FAIR      25  23  91 CALM      29.79S
WAYNESBORO*    FAIR      23  21  93 CALM      29.76S
HOT SPRINGS VA FAIR      32  21  63 CALM      29.67F
LYNCHBURG      FAIR      25  22  88 CALM      29.79S
DANVILLE       FAIR      28  23  81 SW3       29.81S
SOUTH BOSTON*  FAIR      28  26  89 CALM      29.80S
MARTINSVILLE   FAIR      21  19  94 CALM      29.82S
ROANOKE        FAIR      29  23  78 NW5       29.80S
BLACKSBURG     MOCLDY    26  24  94 CALM      29.79F
DUBLIN*        MOCLDY    30  26  83 SW7       29.77F
MARION*        FAIR      32  22  66 W7        29.77S
HILLSVILLE*    FAIR      34  22  60 CALM      29.74S
RICHLANDS*     FAIR      36  18  47 SW9       29.73F
WISE*          CLOUDY    32  19  59 SW7       29.73F
ABINGDON*      FAIR      29  23  78 CALM      29.77F
$$

MDZ021>025-VAZ099-100-081100-
SOUTHERN MARYLAND AND THE DELMARVA PENINSULA

CITY           SKY/WX    TMP DP  RH WIND       PRES   REMARKS
PATUXENT RIVER PTCLDY    38  26  62 N13       29.74R
BAY BRIDGE APT   N/A     37  27  65 N10       29.75R
LEONARDTOWN    MOCLDY    36  23  60 NW3       29.76R
DOVER          CLOUDY    37  29  71 N12       29.71R
GEORGETOWN     CLOUDY    39  30  70 N12G22    29.70R
EASTON         CLOUDY    37  26  65 NE8       29.76R
CAMBRIDGE      CLOUDY    36  27  69 N5        29.72R
SALISBURY      CLOUDY    39  31  72 N17       29.69R
OCEAN CITY     CLOUDY    40  34  79 N13G29    29.66R
WALLOPS ISLAND CLOUDY    40  32  73 N14G20    29.67R
ACCOMACK*      CLOUDY    37  30  75 N13       29.68S
$$

NCZ012>017-030>032-081100-
NORTH CENTRAL AND EASTERN NORTH CAROLINA

CITY           SKY/WX    TMP DP  RH WIND       PRES   REMARKS
ROANOKE RAPIDS FAIR      34  23  64 NW5       29.78R
RALEIGH        PTCLDY    32  23  69 CALM      29.82R
ELIZABETH CITY CLOUDY    38  28  67 NW12      29.71R
AHOSKIE*       CLEAR     35  21  56 CALM      29.77R
EDENTON*       CLOUDY    39  27  62 NW8       29.74R
CURRITUCK*     CLOUDY    40  32  71 NW8       29.70R
KILL DEVIL HLS CLOUDY    41  32  71 N10G26    29.64R
MANTEO         CLOUDY    40  33  74 N16G22    29.66R
CAPE HATTERAS  CLOUDY    42  34  73 NW21G30   29.67R
TARBORO*       FAIR      35  24  64 NW3       29.79S
GOLDSBORO      CLEAR     36  27  69 W8        29.80R
WASHINGTON     CLEAR     37  23  58 NW7       29.76R
GREENVILLE     CLEAR     37  23  56 NW6       29.81R
NEW BERN       CLEAR     37  24  59 W7        29.79R
WILMINGTON     CLEAR     38  26  62 W8        29.84R
$$

VAZ048-081100-
ELSEWHERE

CITY           SKY/WX    TMP DP  RH WIND       PRES   REMARKS
HARRISBURG PA  CLOUDY    30  23  75 NW12      29.77F WCI  20
BALTIMORE      CLOUDY    37  20  50 NW7       29.76R
ANNAPOLIS      CLOUDY    39  24  55 N10       29.75R
ANDREWS AFB    FAIR      35  22  60 NW10      29.76R
PHILADELPHIA   CLOUDY    38  20  48 NE17      29.74R
HENDERSON NC   CLEAR     33  22  63 NW5       29.80R
GREENSBORO     MOCLDY    30  23  75 SW3       29.79F
ROCKY MOUNT    CLEAR     34  24  67 W7        29.81R
$$

VAZ100-081100-
MARINE

STATION/POSITION TIME  TEMP    WIND        PRES    WAVE   SWELL
                       AIR SEA DIR/SP/G            HT/PER HT/PER
                 (UTC) (F)     (DEG/KT/KT) (MB)    (FT/S) (FT/S)
BRANDYWINE LGT   0900   39      30/ 23/ 25 1004.9R
CAPE MAY NJ      0900   39 42   20/  8/ 15 1004.2R
LEWES DE         0900   40 40   20/ 20/ 23 1005.1R
15NM E FENWICK I 0950   42 44              1002.6R  12/ 8
OCEAN-CITY-INLET 0900   41 41   20/ 18/ 28 1003.3R
WACHAPREAGUE VA  0900   40 41  350/  9/ 15 1004.4R
THOMAS POINT MD  1000   39 38  360/ 13/ 15 1008.1
GOOSES REEF MD   1000   40 39   10/ 16/ 19 1008.2R   2/ 3
COVE POINT MD    0900   39      10/ 14/ 20 1006.8S
SOLOMONS ISLAND  0900   40 41  350/ 11/ 18   N/A
BISHOPS HEAD MD  0900   39 39  360/  7/ 13 1004.8R
POTOMAC MD       1000   40 40  360/ 14/ 17 1006.0R   1/ 3
CAMBRIDGE MD     0900   39 40   10/ 12/ 16 1005.1R
LEWISETTA VA     0900   40 41  360/ 10/ 13 1006.0R
RAPPAHANNOCK LGT 0900          350/ 26/ 30 1004.9R
STINGRAY PT      1000   41 42  360/ 17/ 21 1006.3R   2/ 3
YORK RVR RNG VA  0900   41     350/ 18/ 21 1004.6R
YORKTOWN VA      0900   41 42  340/  9/ 12 1005.3R
JAMESTOWN VA     1000   39 43  310/ 12/ 16   N/A
DOMINION TERM VA 0900   41     360/ 11/ 15 1005.3R
KIPTOPEKE VA     0900      43  360/ 17/ 22   N/A
CHES BAY BRIDGE  0900   42 43  330/ 26/ 33 1004.6R
CAPE HENRY VA    0900   41     350/ 31/ 36   N/A
CHESAPEAKE LGHT  0900   41     350/ 36/ 39 1003.4R
WILLOUBY STN VA  0900   42     350/ 16/ 20 1027.5S
CAPE HENRY BUOY  0928      45                N/A    10/11   5/11
1ST LANDING BUOY 1000      42                N/A     6/ 5
CAPE CHARLES BUO 0926      44                N/A    10/10  10/10
OFFSHORE WE BUOY 0921      48                N/A    12/10  10/10
64NM E OF VA BCH 0950   49 53  360/ 29/ 35  999.7R  20/12  15/12
DUCK PIER NC     0900   41 52  330/ 21/ 27 1002.8R
44100 DUCK FRF   0924      47                N/A    17/12  10/12
44056 DUCK FRF   0911      44                N/A    12/12   8/12
OREGON INLET NC  0900   41 45  330/ 21/ 30 1002.6R
HATTERAS NC      0900   42 46  320/ 28/ 32 1002.9R
DIAMOND SHLS NC  0950   46 70  320/ 27/ 33 1003.3R  13/12  10/12
$$




USA.gov is the U.S. government's official web portal to all federal, state and local government web resources and services.